Weather History for Fort Polk, LA

Change the Weather History Date:

Tuesday, September 3, 2013

  Actual Average (KPOE) Record (KPOE)
Temperature  
Mean Temperature 85 °F -  
Max Temperature 97 °F 87 °F 107 °F (2000)
Min Temperature 73 °F 69 °F 66 °F (1996)
Cooling Degree Days 20    
Growing Degree Days 35 (Base 50)    
Moisture  
Dew Point 72 °F    
Average Humidity 68    
Maximum Humidity 94    
Minimum Humidity 39    
Precipitation  
Precipitation 0.00 in - - ()
Sea Level Pressure  
Sea Level Pressure 29.91 in    
Wind  
Wind Speed 2 mph (SW)    
Max Wind Speed 9 mph    
Max Gust Speed 23 mph    
Visibility 10 miles    
Events Thunderstorm    
Averages and records for this station are not official NWS values.
T = Trace of Precipitation, MM = Missing Value Source: NWS Daily Summary

Daily Weather History Graph

Daily Weather History Graph

Search for Another Location

Airport:

Trip Planner

Search our weather history database for the weather conditions in past years. The results will help you decide how hot, cold, wet, or windy it might be!

Date:

Astronomy

Sep. 03, 2013 Rise Set
Actual Time 6:50 AM CDT 7:33 PM CDT
Civil Twilight 6:25 AM CDT 7:58 PM CDT
Nautical Twilight 5:56 AM CDT 8:27 PM CDT
Astronomical Twilight 5:26 AM CDT 8:57 PM CDT
Moon 5:08 AM CDT (9/3) 6:20 PM CDT (9/3)
Length of Visible Light 13h 32m
Length of Day
12h 43m
Waning Crescent, 3% of the Moon is Illuminated
Sep 3
Waning Crescent
Sep 5
New
Sep 12
First Quarter
Sep 19
Full
Sep 26
Last Quarter

Hourly Weather History & Observations

Time (CDT) Temp. Heat Index Dew Point Humidity Pressure Visibility Wind Dir Wind Speed Gust Speed Precip Events Conditions
12:56 AM 73.9 °F - 72.0 °F 93% 29.91 in 10.0 mi Calm Calm - N/A   Clear
1:56 AM 75.9 °F - 72.0 °F 87% 29.91 in 10.0 mi Calm Calm - N/A   Clear
2:56 AM 75.9 °F - 73.0 °F 91% 29.91 in 10.0 mi Calm Calm - N/A   Partly Cloudy
3:56 AM 77.0 °F - 73.9 °F 90% 29.90 in 10.0 mi South 3.5 mph - N/A   Scattered Clouds
4:56 AM 77.0 °F - 73.9 °F 90% 29.91 in 10.0 mi Calm Calm - N/A   Partly Cloudy
5:56 AM 75.9 °F - 73.9 °F 94% 29.93 in 10.0 mi Calm Calm - N/A   Partly Cloudy
6:56 AM 77.0 °F - 73.9 °F 90% 29.93 in 10.0 mi Calm Calm - N/A   Clear
7:56 AM 79.0 °F - 75.0 °F 88% 29.94 in 10.0 mi Variable 3.5 mph - N/A   Clear
8:56 AM 82.0 °F 88.6 °F 75.0 °F 79% 29.95 in 10.0 mi West 5.8 mph - N/A   Partly Cloudy
9:56 AM 88.0 °F 94.7 °F 72.0 °F 59% 29.96 in 10.0 mi Calm Calm - N/A   Clear
10:56 AM 91.9 °F 99.5 °F 72.0 °F 52% 29.96 in 10.0 mi Calm Calm - N/A   Clear
11:56 AM 95.0 °F 101.3 °F 70.0 °F 44% 29.94 in 10.0 mi West 5.8 mph - N/A   Clear
12:56 PM 95.0 °F 100.7 °F 69.1 °F 43% 29.93 in 10.0 mi Calm Calm - N/A   Mostly Cloudy
1:56 PM 97.0 °F 102.2 °F 68.0 °F 39% 29.90 in 10.0 mi Calm Calm - N/A   Mostly Cloudy
2:15 PM 96.8 °F 101.8 °F 68.0 °F 39% 29.90 in 10.0 mi Variable 3.5 mph - N/A Thunderstorm Thunderstorm
2:45 PM 93.2 °F 98.8 °F 69.8 °F 46% 29.89 in 10.0 mi Variable 5.8 mph - N/A   Mostly Cloudy
2:56 PM 95.0 °F 100.7 °F 69.1 °F 43% 29.87 in 10.0 mi Variable 5.8 mph - N/A   Scattered Clouds
3:33 PM 87.8 °F 95.6 °F 73.4 °F 62% 29.90 in 10.0 mi Variable 5.8 mph 23.0 mph N/A Thunderstorm Thunderstorm
3:56 PM 89.1 °F 95.0 °F 71.1 °F 55% 29.89 in 10.0 mi SSW 8.1 mph 16.1 mph N/A Thunderstorm Thunderstorm
4:08 PM 87.8 °F 92.6 °F 69.8 °F 55% 29.89 in 10.0 mi WSW 9.2 mph - N/A   Partly Cloudy
4:56 PM 86.0 °F 90.7 °F 70.0 °F 59% 29.86 in 10.0 mi Variable 4.6 mph - N/A   Clear
5:56 PM 88.0 °F 91.4 °F 68.0 °F 51% 29.87 in 10.0 mi Calm Calm - N/A   Clear
6:56 PM 88.0 °F 92.9 °F 70.0 °F 55% 29.89 in 10.0 mi Calm Calm - N/A   Scattered Clouds
7:56 PM 84.0 °F 88.4 °F 70.0 °F 63% 29.90 in 10.0 mi Calm Calm - N/A   Clear
8:56 PM 80.1 °F 83.8 °F 72.0 °F 76% 29.91 in 10.0 mi Calm Calm - N/A   Clear
9:56 PM 79.0 °F - 73.0 °F 82% 29.93 in 10.0 mi Calm Calm - N/A   Clear
10:56 PM 79.0 °F - 73.9 °F 84% 29.94 in 10.0 mi Calm Calm - N/A   Clear
11:56 PM 77.0 °F - 73.9 °F 90% 29.94 in 10.0 mi Calm Calm - N/A   Clear